Location: Proctor
(47.8934°N, 114.3048°W)
Time: 21:11:27
(UTC+00:00)

Vanguard 2 Rocket - Pass Details

Date: 19 June 2024
Orbit: 555 x 3302 km, 32.9° (Epoch: 22 July)

Event Time Altitude Azimuth Distance (km) Brightness Sun altitude
Exits shadow 07:43:08 12° 149° (SSE) 6,064 10.6 -18.7°
Maximum altitude 07:48:25 13° 133° (SE) 5,960 10.7 -18.6°
Drops below altitude 10° 07:55:47 10° 111° (ESE) 6,162 10.9 -18.6°
Sets 08:04:16 0° 89° (E) 6,858 11.5 -18.4°
